Starlink 3517

operational
NORAD ID: 51735 Int'l Des: 2022-016 Owner: SPXS Country: US Constellation: starlink
LEOCIRCULAR

关于 Starlink 3517

正在加载描述...

实时位置

正在加载3D地球...

即将过境

高度历史

Altitude vs Time

uPlot chart will show altitude changes over time

两行轨道根数

1 51735U 22016X 25305.35247626 .00000226 00000-0 32321-4 0 9997
2 51735 53.2173 175.2498 0001537 95.0053 265.1115 15.08833386204190
Epoch: Nov 1, 2025 • Age: 36 hours

当前状态

高度 556.8 km
速度 7.58 km/s
星下点 -46.92°S, 122.41°E
发射日期 Feb 21, 2022
运行时间 3.6 years
类型 internet

技术详情

分类 Payload
质量 297.00 kg
干质量 275.00 kg
总质量 297.00 kg
长度 0.20 m
直径 2.80 m
跨度 9.00 m
形状 Box + pan
制造商 SPXS
平台类型 Starlink
阶段状态 In Orbit
所有者/国家 SPXS/US

大型星座

Loading constellations...